Time,TemperatureF,DewpointF,PressureIn,WindDirection,WindDirectionDegrees,WindSpeedMPH,WindSpeedGustMPH,Humidity,HourlyPrecipIn,Conditions,Clouds,dailyrainin,SoftwareType,DateUTC
2013-03-06 00:02:00,27.0,26.0,30.01,North,11,4.0,8.0,96,0.00,,,0.42,,2013-03-06 06:02:00,
2013-03-06 00:11:00,27.0,26.0,30.01,North,11,4.0,8.0,96,0.00,,,0.42,,2013-03-06 06:11:00,
2013-03-06 00:22:00,27.0,26.0,30.02,NNW,346,3.0,8.0,96,0.00,,,0.42,,2013-03-06 06:22:00,
2013-03-06 00:32:00,26.0,25.0,30.03,NNW,342,4.0,8.0,96,0.00,,,0.42,,2013-03-06 06:32:00,
2013-03-06 00:42:00,26.0,25.0,30.03,NNW,342,4.0,8.0,96,0.00,,,0.42,,2013-03-06 06:42:00,
2013-03-06 00:52:00,26.0,25.0,30.03,NNW,342,4.0,10.0,96,0.00,,,0.42,,2013-03-06 06:52:00,
2013-03-06 01:01:00,26.0,25.0,30.05,NNW,348,4.0,9.0,95,0.00,,,0.42,,2013-03-06 07:01:00,
2013-03-06 01:11:00,26.0,25.0,30.05,NNW,348,4.0,9.0,95,0.00,,,0.42,,2013-03-06 07:11:00,
2013-03-06 01:22:00,27.0,26.0,30.06,North,11,4.0,10.0,95,0.00,,,0.42,,2013-03-06 07:22:00,
2013-03-06 01:32:00,27.0,26.0,30.06,North,5,4.0,10.0,95,0.00,,,0.42,,2013-03-06 07:32:00,
2013-03-06 01:42:00,27.0,26.0,30.06,North,5,4.0,10.0,95,0.00,,,0.42,,2013-03-06 07:42:00,
2013-03-06 01:52:00,27.0,26.0,30.07,North,360,4.0,8.0,95,0.00,,,0.42,,2013-03-06 07:52:00,
2013-03-06 02:01:00,26.0,25.0,30.07,NNW,333,5.0,9.0,94,0.00,,,0.42,,2013-03-06 08:01:00,
2013-03-06 02:11:00,26.0,25.0,30.07,NNW,333,5.0,9.0,94,0.00,,,0.42,,2013-03-06 08:11:00,
2013-03-06 02:21:00,26.0,25.0,30.07,NNW,336,5.0,9.0,94,0.00,,,0.42,,2013-03-06 08:21:00,
2013-03-06 02:32:00,26.0,25.0,30.07,NNW,336,5.0,9.0,94,0.00,,,0.42,,2013-03-06 08:32:00,
2013-03-06 02:42:00,26.0,25.0,30.07,NNW,336,5.0,9.0,94,0.00,,,0.42,,2013-03-06 08:42:00,
2013-03-06 02:52:00,27.0,26.0,30.09,NNW,344,4.0,11.0,94,0.00,,,0.42,,2013-03-06 08:52:00,
2013-03-06 03:01:00,27.0,26.0,30.09,North,350,5.0,11.0,94,0.00,,,0.42,,2013-03-06 09:01:00,
2013-03-06 03:12:00,27.0,26.0,30.09,North,350,5.0,11.0,94,0.00,,,0.42,,2013-03-06 09:12:00,
2013-03-06 03:21:00,27.0,26.0,30.10,North,355,4.0,10.0,94,0.00,,,0.42,,2013-03-06 09:21:00,
2013-03-06 03:32:00,27.0,26.0,30.11,NNE,19,5.0,9.0,94,0.00,,,0.42,,2013-03-06 09:32:00,
2013-03-06 03:42:00,27.0,26.0,30.11,NNE,19,5.0,9.0,94,0.00,,,0.42,,2013-03-06 09:42:00,
2013-03-06 03:51:00,27.0,25.0,30.11,North,360,4.0,11.0,93,0.00,,,0.42,,2013-03-06 09:51:00,
2013-03-06 04:01:00,27.0,25.0,30.12,NNE,24,4.0,8.0,93,0.00,,,0.42,,2013-03-06 10:01:00,
2013-03-06 04:11:00,27.0,25.0,30.12,NNE,24,4.0,8.0,93,0.00,,,0.42,,2013-03-06 10:11:00,
2013-03-06 04:21:00,26.0,24.0,30.12,North,5,4.0,8.0,93,0.00,,,0.42,,2013-03-06 10:21:00,
2013-03-06 04:32:00,27.0,25.0,30.13,NNW,342,4.0,10.0,93,0.00,,,0.42,,2013-03-06 10:32:00,
2013-03-06 04:42:00,27.0,25.0,30.13,NNW,342,4.0,10.0,93,0.00,,,0.42,,2013-03-06 10:42:00,
2013-03-06 04:51:00,27.0,25.0,30.14,North,355,4.0,9.0,93,0.00,,,0.42,,2013-03-06 10:51:00,
2013-03-06 05:02:00,26.0,24.0,30.15,North,349,3.0,8.0,92,0.00,,,0.42,,2013-03-06 11:02:00,
2013-03-06 05:11:00,26.0,24.0,30.15,North,349,3.0,8.0,92,0.00,,,0.42,,2013-03-06 11:11:00,
2013-03-06 05:22:00,26.0,24.0,30.16,NNW,327,3.0,7.0,93,0.00,,,0.42,,2013-03-06 11:22:00,
2013-03-06 05:32:00,27.0,25.0,30.16,North,355,2.0,5.0,93,0.00,,,0.42,,2013-03-06 11:32:00,
2013-03-06 05:42:00,27.0,25.0,30.16,North,355,2.0,5.0,93,0.00,,,0.42,,2013-03-06 11:42:00,
2013-03-06 05:52:00,27.0,25.0,30.17,North,355,2.0,4.0,93,0.00,,,0.42,,2013-03-06 11:52:00,
2013-03-06 06:02:00,27.0,25.0,30.17,North,350,2.0,4.0,93,0.00,,,0.42,,2013-03-06 12:02:00,
2013-03-06 06:11:00,27.0,25.0,30.17,North,350,2.0,4.0,93,0.00,,,0.42,,2013-03-06 12:11:00,
2013-03-06 06:21:00,27.0,25.0,30.18,NNW,345,1.0,4.0,93,0.00,,,0.42,,2013-03-06 12:21:00,
2013-03-06 06:33:00,27.0,25.0,30.19,NNW,347,2.0,8.0,93,0.00,,,0.42,,2013-03-06 12:33:00,
2013-03-06 06:42:00,27.0,25.0,30.19,NNW,347,2.0,8.0,93,0.00,,,0.42,,2013-03-06 12:42:00,
2013-03-06 06:52:00,27.0,25.0,30.19,NNW,338,1.0,7.0,93,0.00,,,0.42,,2013-03-06 12:52:00,
2013-03-06 07:02:00,26.0,24.0,30.21,NNW,332,5.0,9.0,92,0.00,,,0.42,,2013-03-06 13:02:00,
2013-03-06 07:12:00,26.0,24.0,30.21,NNW,332,5.0,9.0,92,0.00,,,0.42,,2013-03-06 13:12:00,
2013-03-06 07:22:00,26.0,24.0,30.21,NW,315,4.0,8.0,92,0.00,,,0.42,,2013-03-06 13:22:00,
2013-03-06 07:32:00,26.0,24.0,30.22,NW,311,5.0,10.0,92,0.00,,,0.42,,2013-03-06 13:32:00,
2013-03-06 07:42:00,26.0,24.0,30.22,NW,311,5.0,10.0,92,0.00,,,0.42,,2013-03-06 13:42:00,
2013-03-06 07:52:00,26.0,24.0,30.23,North,349,5.0,12.0,92,0.00,,,0.42,,2013-03-06 13:52:00,
2013-03-06 08:01:00,26.0,24.0,30.24,NNW,348,5.0,10.0,92,0.00,,,0.42,,2013-03-06 14:01:00,
2013-03-06 08:11:00,26.0,24.0,30.24,NNW,348,5.0,10.0,92,0.00,,,0.42,,2013-03-06 14:11:00,
2013-03-06 08:22:00,26.0,24.0,30.24,North,355,4.0,8.0,92,0.00,,,0.42,,2013-03-06 14:22:00,
2013-03-06 08:32:00,26.0,24.0,30.25,North,355,3.0,11.0,92,0.00,,,0.42,,2013-03-06 14:32:00,
2013-03-06 08:42:00,26.0,24.0,30.25,North,355,3.0,11.0,92,0.00,,,0.42,,2013-03-06 14:42:00,
2013-03-06 08:52:00,27.0,25.0,30.25,NNW,345,3.0,7.0,92,0.00,,,0.42,,2013-03-06 14:52:00,
2013-03-06 09:02:00,27.0,25.0,30.25,NNW,338,3.0,7.0,91,0.00,,,0.42,,2013-03-06 15:02:00,
2013-03-06 09:11:00,27.0,25.0,30.25,NNW,338,3.0,7.0,91,0.00,,,0.42,,2013-03-06 15:11:00,
2013-03-06 09:21:00,28.0,26.0,30.26,NNW,340,2.0,6.0,91,0.00,,,0.42,,2013-03-06 15:21:00,
2013-03-06 09:32:00,28.0,25.0,30.26,NNW,333,4.0,7.0,90,0.00,,,0.42,,2013-03-06 15:32:00,
2013-03-06 09:42:00,28.0,25.0,30.26,NNW,333,4.0,7.0,90,0.00,,,0.42,,2013-03-06 15:42:00,
2013-03-06 09:52:00,28.0,25.0,30.27,NNW,337,6.0,9.0,90,0.00,,,0.42,,2013-03-06 15:52:00,
2013-03-06 10:02:00,29.0,26.0,30.27,NNW,336,3.0,6.0,90,0.00,,,0.42,,2013-03-06 16:02:00,
2013-03-06 10:11:00,29.0,26.0,30.27,NNW,336,3.0,6.0,90,0.00,,,0.42,,2013-03-06 16:11:00,
2013-03-06 10:21:00,29.0,26.0,30.27,NW,320,3.0,8.0,90,0.00,,,0.42,,2013-03-06 16:21:00,
2013-03-06 10:32:00,29.0,26.0,30.28,NNW,344,3.0,10.0,89,0.00,,,0.42,,2013-03-06 16:32:00,
2013-03-06 10:42:00,29.0,26.0,30.28,NNW,344,3.0,10.0,89,0.00,,,0.42,,2013-03-06 16:42:00,
2013-03-06 10:52:00,29.0,26.0,30.29,NW,325,5.0,10.0,89,0.00,,,0.42,,2013-03-06 16:52:00,
2013-03-06 11:01:00,29.0,26.0,30.29,NNW,346,5.0,9.0,88,0.00,,,0.38,,2013-03-06 17:01:00,
2013-03-06 11:11:00,29.0,26.0,30.29,NNW,346,5.0,9.0,88,0.00,,,0.38,,2013-03-06 17:11:00,
2013-03-06 11:21:00,30.0,27.0,30.28,NNW,338,3.0,12.0,88,0.00,,,0.38,,2013-03-06 17:21:00,
2013-03-06 11:32:00,30.0,27.0,30.29,NW,308,5.0,10.0,88,0.01,,,0.39,,2013-03-06 17:32:00,
2013-03-06 11:42:00,30.0,27.0,30.29,NW,308,5.0,10.0,88,0.01,,,0.39,,2013-03-06 17:42:00,
2013-03-06 11:52:00,31.0,28.0,30.29,NNW,347,2.0,7.0,88,0.02,,,0.40,,2013-03-06 17:52:00,
2013-03-06 12:02:00,31.0,27.0,30.28,NNW,347,3.0,8.0,86,0.04,,,0.35,,2013-03-06 18:02:00,
2013-03-06 12:28:00,32.0,28.0,30.28,NNW,342,2.0,8.0,86,0.05,,,0.36,,2013-03-06 18:28:00,
2013-03-06 12:42:00,32.0,28.0,30.29,NNW,347,2.0,8.0,86,0.06,,,0.38,,2013-03-06 18:42:00,
2013-03-06 12:52:00,32.0,28.0,30.28,NNW,346,2.0,6.0,85,0.06,,,0.39,,2013-03-06 18:52:00,
2013-03-06 13:02:00,31.0,27.0,30.28,NW,324,5.0,8.0,85,0.06,,,0.33,,2013-03-06 19:02:00,
2013-03-06 13:11:00,31.0,27.0,30.28,NW,324,5.0,8.0,85,0.06,,,0.33,,2013-03-06 19:11:00,
2013-03-06 13:22:00,31.0,27.0,30.27,NNW,327,5.0,10.0,85,0.05,,,0.34,,2013-03-06 19:22:00,
2013-03-06 13:32:00,32.0,28.0,30.27,NNW,345,3.0,7.0,86,0.05,,,0.35,,2013-03-06 19:32:00,
2013-03-06 13:43:00,32.0,28.0,30.27,NNW,345,3.0,7.0,86,0.05,,,0.35,,2013-03-06 19:43:00,
2013-03-06 13:53:00,31.0,27.0,30.27,NNW,332,3.0,7.0,86,0.03,,,0.35,,2013-03-06 19:53:00,
2013-03-06 14:01:00,31.0,27.0,30.27,NW,315,5.0,10.0,85,0.03,,,0.27,,2013-03-06 20:01:00,
2013-03-06 14:12:00,31.0,27.0,30.27,NW,315,5.0,10.0,85,0.03,,,0.27,,2013-03-06 20:12:00,
2013-03-06 14:22:00,31.0,27.0,30.27,NW,315,5.0,10.0,85,0.03,,,0.27,,2013-03-06 20:22:00,
2013-03-06 14:32:00,31.0,27.0,30.28,NNW,338,4.0,10.0,86,0.02,,,0.28,,2013-03-06 20:32:00,
2013-03-06 14:42:00,31.0,27.0,30.28,NNW,338,4.0,10.0,86,0.02,,,0.28,,2013-03-06 20:42:00,
2013-03-06 14:53:00,31.0,28.0,30.29,WNW,294,2.0,7.0,87,0.02,,,0.28,,2013-03-06 20:53:00,
2013-03-06 15:02:00,31.0,27.0,30.29,NNW,348,5.0,9.0,86,0.01,,,0.21,,2013-03-06 21:02:00,
2013-03-06 15:11:00,31.0,27.0,30.29,NNW,348,5.0,9.0,86,0.01,,,0.21,,2013-03-06 21:11:00,
2013-03-06 15:22:00,31.0,27.0,30.29,NNW,342,3.0,7.0,86,0.01,,,0.21,,2013-03-06 21:22:00,
2013-03-06 15:32:00,31.0,27.0,30.29,NW,319,4.0,7.0,86,0.00,,,0.21,,2013-03-06 21:32:00,
2013-03-06 15:42:00,31.0,27.0,30.29,NW,319,4.0,7.0,86,0.00,,,0.21,,2013-03-06 21:42:00,
2013-03-06 15:52:00,30.0,26.0,30.29,WNW,290,4.0,9.0,86,0.01,,,0.22,,2013-03-06 21:52:00,
2013-03-06 16:01:00,30.0,26.0,30.29,NNW,336,4.0,9.0,86,0.01,,,0.18,,2013-03-06 22:01:00,
2013-03-06 16:11:00,30.0,26.0,30.29,NNW,336,4.0,9.0,86,0.01,,,0.18,,2013-03-06 22:11:00,
2013-03-06 16:22:00,30.0,26.0,30.30,NNW,340,3.0,8.0,86,0.01,,,0.18,,2013-03-06 22:22:00,
2013-03-06 16:32:00,30.0,26.0,30.30,NW,315,4.0,8.0,86,0.01,,,0.18,,2013-03-06 22:32:00,
2013-03-06 16:42:00,30.0,26.0,30.30,NW,315,4.0,8.0,86,0.01,,,0.18,,2013-03-06 22:42:00,
2013-03-06 16:52:00,30.0,27.0,30.30,NW,322,3.0,7.0,87,0.00,,,0.18,,2013-03-06 22:52:00,
2013-03-06 17:01:00,30.0,27.0,30.31,NW,311,4.0,8.0,88,0.00,,,0.16,,2013-03-06 23:01:00,
2013-03-06 17:11:00,30.0,27.0,30.31,NW,311,4.0,8.0,88,0.00,,,0.16,,2013-03-06 23:11:00,
2013-03-06 17:21:00,30.0,27.0,30.31,WNW,302,2.0,6.0,88,0.00,,,0.16,,2013-03-06 23:21:00,
2013-03-06 17:32:00,29.0,26.0,30.31,WNW,302,4.0,6.0,88,0.00,,,0.16,,2013-03-06 23:32:00,
2013-03-06 17:42:00,29.0,26.0,30.31,WNW,302,4.0,6.0,88,0.00,,,0.16,,2013-03-06 23:42:00,
2013-03-06 17:52:00,29.0,26.0,30.31,NW,311,3.0,7.0,89,0.00,,,0.16,,2013-03-06 23:52:00,
2013-03-06 18:01:00,29.0,26.0,30.31,NNW,329,4.0,6.0,89,0.00,,,0.16,,2013-03-07 00:01:00,
2013-03-06 18:11:00,29.0,26.0,30.31,NNW,329,4.0,6.0,89,0.00,,,0.16,,2013-03-07 00:11:00,
2013-03-06 18:21:00,29.0,26.0,30.32,NNW,327,3.0,6.0,89,0.00,,,0.16,,2013-03-07 00:21:00,
2013-03-06 18:32:00,29.0,26.0,30.32,WNW,296,3.0,6.0,89,0.00,,,0.16,,2013-03-07 00:32:00,
2013-03-06 18:42:00,29.0,26.0,30.32,WNW,296,3.0,6.0,89,0.00,,,0.16,,2013-03-07 00:42:00,
2013-03-06 18:52:00,28.0,25.0,30.33,NW,320,2.0,8.0,89,0.00,,,0.16,,2013-03-07 00:52:00,
2013-03-06 19:01:00,28.0,25.0,30.32,NW,321,3.0,7.0,89,0.00,,,0.15,,2013-03-07 01:01:00,
2013-03-06 19:11:00,28.0,25.0,30.32,NW,321,3.0,7.0,89,0.00,,,0.15,,2013-03-07 01:11:00,
2013-03-06 19:21:00,28.0,25.0,30.32,NW,311,3.0,6.0,89,0.00,,,0.15,,2013-03-07 01:21:00,
2013-03-06 19:31:00,28.0,25.0,30.32,NNW,341,2.0,5.0,90,0.00,,,0.15,,2013-03-07 01:31:00,
2013-03-06 19:42:00,28.0,25.0,30.32,NNW,341,2.0,5.0,90,0.00,,,0.15,,2013-03-07 01:42:00,
2013-03-06 19:52:00,28.0,25.0,30.33,NW,322,4.0,7.0,89,0.00,,,0.15,,2013-03-07 01:52:00,
2013-03-06 20:01:00,28.0,25.0,30.33,NNW,327,3.0,7.0,90,0.00,,,0.15,,2013-03-07 02:01:00,
2013-03-06 20:11:00,28.0,25.0,30.33,NNW,327,3.0,7.0,90,0.00,,,0.15,,2013-03-07 02:11:00,
2013-03-06 20:21:00,28.0,25.0,30.33,NNW,338,2.0,5.0,90,0.00,,,0.15,,2013-03-07 02:21:00,
2013-03-06 20:32:00,28.0,25.0,30.33,NW,322,2.0,5.0,90,0.00,,,0.15,,2013-03-07 02:32:00,
2013-03-06 20:41:00,28.0,25.0,30.33,NW,322,2.0,5.0,90,0.00,,,0.15,,2013-03-07 02:41:00,
2013-03-06 20:52:00,28.0,25.0,30.33,NW,322,2.0,5.0,90,0.00,,,0.15,,2013-03-07 02:52:00,
2013-03-06 21:02:00,27.0,24.0,30.33,WNW,292,2.0,5.0,90,0.00,,,0.15,,2013-03-07 03:02:00,
2013-03-06 21:11:00,27.0,24.0,30.33,WNW,292,2.0,5.0,90,0.00,,,0.15,,2013-03-07 03:11:00,
2013-03-06 21:21:00,27.0,24.0,30.33,NNW,348,2.0,5.0,90,0.00,,,0.15,,2013-03-07 03:21:00,
2013-03-06 21:32:00,27.0,24.0,30.33,NW,316,2.0,5.0,90,0.00,,,0.15,,2013-03-07 03:32:00,
2013-03-06 21:42:00,27.0,24.0,30.33,NW,316,2.0,5.0,90,0.00,,,0.15,,2013-03-07 03:42:00,
2013-03-06 21:52:00,27.0,24.0,30.33,NW,317,1.0,5.0,90,0.00,,,0.15,,2013-03-07 03:52:00,
2013-03-06 22:01:00,27.0,24.0,30.33,NW,323,2.0,4.0,90,0.00,,,0.15,,2013-03-07 04:01:00,
2013-03-06 22:11:00,27.0,24.0,30.33,NW,323,2.0,4.0,90,0.00,,,0.15,,2013-03-07 04:11:00,
2013-03-06 22:21:00,27.0,24.0,30.33,NNW,345,2.0,6.0,90,0.00,,,0.15,,2013-03-07 04:21:00,
2013-03-06 22:31:00,27.0,24.0,30.33,NW,319,2.0,4.0,90,0.00,,,0.15,,2013-03-07 04:31:00,
2013-03-06 22:42:00,27.0,24.0,30.33,NW,319,2.0,4.0,90,0.00,,,0.15,,2013-03-07 04:42:00,
2013-03-06 22:52:00,27.0,24.0,30.32,NNW,346,2.0,5.0,90,0.00,,,0.15,,2013-03-07 04:52:00,
2013-03-06 23:01:00,27.0,24.0,30.32,NNW,331,2.0,5.0,90,0.00,,,0.15,,2013-03-07 05:01:00,
2013-03-06 23:12:00,27.0,24.0,30.32,NNW,331,2.0,5.0,90,0.00,,,0.15,,2013-03-07 05:12:00,
2013-03-06 23:22:00,27.0,24.0,30.32,West,276,3.0,5.0,90,0.00,,,0.15,,2013-03-07 05:22:00,
2013-03-06 23:32:00,26.0,23.0,30.32,NW,321,3.0,6.0,90,0.00,,,0.15,,2013-03-07 05:32:00,
2013-03-06 23:42:00,26.0,23.0,30.32,NW,321,3.0,6.0,90,0.00,,,0.15,,2013-03-07 05:42:00,
2013-03-06 23:52:00,26.0,23.0,30.32,NW,313,3.0,5.0,90,0.00,,,0.15,,2013-03-07 05:52:00,